Location: Bambrugge
(50.9212°N, 3.9299°E)
Time: 12:25:03
(UTC+00:00)

Cosmos 468 Rocket - Pass Details

Date: 23 May 2024
Orbit: 741 x 777 km, 74.0° (Epoch: 14 June)

Event Time Altitude Azimuth Distance (km) Brightness Sun altitude
Rises 00:39:09 0° 334° (NNW) 3,271 8.1 -17.3°
Reaches altitude 10° 00:41:33 10° 332° (NNW) 2,337 7.2 -17.2°
Maximum altitude 00:46:50 70° 250° (WSW) 826 4.0 -17.0°
Enters shadow 00:49:50 26° 172° (S) 1,491 5.0 -16.9°
